Skip Page Navigation
NASA JPL Caltech
NASA Logo - Jet Propulsion Laboratory + View the NASA Portal
+ Center for Near-Earth Object Studies
JPL Home Earth Solar System Stars & Galaxies Technology
JPL Solar System Dynamics
BODIES ORBITS EPHEMERIDES TOOLS PHYSICAL DATA DISCOVERY FAQ SITE MAP
IMPORTANT: The SSD Announcement email list is now available. Major changes are coming in the near future, including possible hostname and/or URL changes. To be notified of such changes, subscribe to this email list.

Please visit this page for more details.


JPL Small-Body Database Browser
Search: [ help ]  
97496 (2000 CU86)
Classification: Main-belt Asteroid          SPK-ID: 2097496
Ephemeris | Orbit Diagram | Orbital Elements | Mission Design | Physical Parameters | Discovery Circumstances | Close-Approach Data ]

[ show orbit diagram ]
Orbital Elements at Epoch 2458600.5 (2019-Apr-27.0) TDB
Reference: JPL 20 (heliocentric ecliptic J2000)
 Element Value Uncertainty (1-sigma)   Units 
e .07100164735703621 4.5412e-08  
a 3.109931653345293 2.6581e-08 au
q 2.889121382789986 1.448e-07 au
i 21.43857569302347 7.5593e-06 deg
node 341.8366332514281 1.1841e-05 deg
peri 112.8931594180553 5.5013e-05 deg
M 231.6866981263578 5.2654e-05 deg
tp 2459314.492868383058
(2021-Apr-09.99286838)
0.00029607 TDB
period 2003.201763687922
5.48
2.5682e-05
7.031e-08
d
yr
n .1797123018388497 2.304e-09 deg/d
Q 3.3307419239006 2.8468e-08 au
  Orbit Determination Parameters
   # obs. used (total)      732  
   data-arc span      7650 days (20.94 yr)  
   first obs. used      1998-11-17  
   last obs. used      2019-10-28  
   planetary ephem.      DE431  
   SB-pert. ephem.      SB431-N16  
   condition code      0  
   norm. resid. RMS      .51562  
   source      ORB  
   producer      Otto Matic  
   solution date      2019-Nov-07 11:31:03  

Additional Information
 Earth MOID = 1.9669 au 
 Jupiter MOID = 1.79833 au 
 T_jup = 3.109 
[ hide covariance matrix ]
Orbital Elements at Epoch 2457278.5 (2015-Sep-13.0) TDB
Reference: JPL 20 (heliocentric ecliptic J2000)
 Element Value Uncertainty (1-sigma)   Units 
e .06799011073103566 4.5437e-08  
q 2.898747683356388 1.4409e-07 au
tp 2457308.353301233515
(2015-Oct-12.85330123)
0.00030388 TDB
node 341.9571950591981 1.1813e-05 deg
peri 112.5758434702375 5.7766e-05 deg
i 21.46984696300554 7.5648e-06 deg
  Orbit Determination Parameters
   # obs. used (total)      732  
   data-arc span      7650 days (20.94 yr)  
   first obs. used      1998-11-17  
   last obs. used      2019-10-28  
   planetary ephem.      DE431  
   SB-pert. ephem.      SB431-N16  
   condition code      0  
   norm. resid. RMS      .51562  
   source      ORB  
   producer      Otto Matic  
   solution date      2019-Nov-07 11:31:03  

Additional Information
 Jupiter MOID = 1.79833 au 
 T_jup = 3.109 
Orbit Covariance (6×6)
  e q tp node peri i
e 2.06451774735356E-15 -6.449636134951053E-15 5.222469112993918E-12 -8.437056000537487E-15 1.010281927530958E-12 -5.532238373134837E-15
q -6.449636134951053E-15 2.076234172000682E-14 -1.40700420613655E-11 2.556745918622271E-14 -2.746150887874391E-12 2.216590513116143E-14
tp 5.222469112993918E-12 -1.40700420613655E-11 9.234309254475764E-8 -2.825547469574073E-11 1.719464432720584E-8 -8.715060598775017E-12
node -8.437056000537487E-15 2.556745918622271E-14 -2.825547469574073E-11 1.395518983892733E-10 -1.347311613131015E-10 9.8808960022547E-14
peri 1.010281927530958E-12 -2.746150887874391E-12 1.719464432720584E-8 -1.347311613131015E-10 3.336965527560369E-9 -1.85990493870312E-12
i -5.532238373134837E-15 2.216590513116143E-14 -8.715060598775017E-12 9.8808960022547E-14 -1.85990493870312E-12 5.72255785632358E-11

Ephemeris | Orbit Diagram | Orbital Elements | Mission Design | Physical Parameters | Discovery Circumstances | Close-Approach Data ]

Physical Parameter Table
Parameter Symbol Value Units Sigma Reference Notes
absolute magnitude H 13.7   n/a MPO453424  
diameter diameter 9.152 km 0.093 urn:nasa:pds:neowise_diameters_albedos::2.0[mainbelt] (http://adsabs.harvard.edu/abs/2011ApJ...741...68M)  
geometric albedo albedo 0.101   0.021 urn:nasa:pds:neowise_diameters_albedos::2.0[mainbelt] (http://adsabs.harvard.edu/abs/2011ApJ...741...68M)  

97496 (2000 CU86)          Discovered 2000-Feb-04 by LINEAR at Socorro
Reference: 20050224/Numbers.arcLast Updated: 2005-02-28

[ show close-approach data ]
Ephemeris | Orbit Diagram | Orbital Elements | Mission Design | Physical Parameters | Discovery Circumstances | Close-Approach Data ]
ABOUT SSD CREDITS/AWARDS PRIVACY/COPYRIGHT GLOSSARY LINKS
FirstGov
(server date/time)  
NASA Home Page
Site Manager:   Ryan S. Park
Webmaster  Alan B. Chamberlin